CZ-6A DEB, 54269

Orbit data source: Space-Track

CZ-6A DEB, 54269 is space debris in SSO originally from a launch on Fri, 11 Nov 2022 UTC launched from the Taiyaun Space Center, China (TSC). Debris objects in space refer to the collection of defunct objects orbiting the Earth. Examples of debris include non-operational satellites, rocket bodies, and fragments generated from explosions, collisions, or faulty payload assembly.

Loading next visibility...
Identifier
54269, 2022-151L
Orbit
SSO
Country
Flag of CNCN / PRC
Related business
Manufacturer
SAST
Mission
Spacecraft
Bus & Motor
Unknown
Mass
Unknown
Launch date (UTC)
2022-11-11 (4 years ago)
Launch vehicle
Unknown
Launch site
Taiyaun Space Center, China (TSC)
Object type
Payload
Rocket body
Debris
Shape & HBR
Unknown shape, 0.4 m
Radar Cross Section
Medium (>0.1 m² and <1 m²)

Expand to show TLE details & history
Last TLE update: 2 days ago

TLE from 2 days ago
0 CZ-6A DEB
1 54269U 22151L   26171.39525296  .00000134  00000-0  49598-4 0  9992
2 54269  98.6119 223.2589 0129937 311.1841  47.8201 14.43687775189252
Epoch: 2026-06-20T09:29Z
TLE epoch observation values (Epoch: 2026-06-20T09:29:09.855Z)
Latitude
0.00002°
Longitude
172.35734°
Altitude
687.788 km
Speed
7.545 km/s
True Right ascension
14h 53m 02s
True Declination
0° 00' 00"
Sunlit
Object was in full shadow at epoch
Visualization orbit readout
Latitude
Unknown
Longitude
Unknown
Altitude
Unknown
Speed
Unknown
Apparent Right ascension
Unknown
Apparent Declination
Unknown
Sunlit
N/A
Visualization observer readout
Local Sidereal Time
21:53:58
Azimuth
Unknown
Elevation
Unknown
Doppler factor
Unknown
Orbital elements
Apogee altitude
835.997 km
Perigee altitude
650.926 km
Semi-major axis
7,121.599 km
Eccentricity
0.01299
Inclination
98.6119°
RAAN
223.2589°
Arg. of periapsis
311.1841°
True anomaly
48.93558°
Mean anomaly
47.8201°
Eccentric anomaly
48.37662°
Mean motion
3.61141 °/min
Orbital period
99.68 mins
BSTAR
0.000049598
Loading maneuver chart data...
Computing Atmospheric mass density...
Loading historical data...
Loading historical data...
Loading historical data...
Loading historical data...
Loading historical data...
Loading historical data...
Loading historical data...

Documentation

Showing up to 5 results
|